User: anonymous   Login
Location: Cincinnati Observatory Center
(39.1389°N, 84.4225°W)
Time: 21:56:24
(UTC-04:00)
Language:

COSMOS 2428 - Orbit

View from above orbital plane
View from above orbital plane
View from above satellite
View from above satellite

Ground track
Ground track

The orbit data is extracted from the following two-line orbital elements,

1 31792U 07029A   16149.70361263  .00000137  00000-0  10000-3 0  9994
2 31792  70.9400 139.1041 0006653 139.3779 341.8168 14.12380595459784
Epoch (UTC): 28 May 2016 16:53:12
Eccentricity: 0.0006653
inclination: 70.9400°
perigee height: 846 km
apogee height: 856 km
right ascension of ascending node: 139.1041°
argument of perigee: 139.3779°
revolutions per day: 14.12380595
mean anomaly at epoch: 341.8168°
orbit number at epoch: 45978

The dashed part of the orbit path shows where the satellite is in the earth's shadow,  

DLR